Temperature
23 23 23 24 25 25 25 25 26 27 29 28 27 27 28 28 28 27 27 26 25 24 24 24 24 23 23 22 21 20 20 19 19 19 18 19 18 18 18 18 18 18 18 17
23 23 24 25 26 25 25 25 26 27 28 27 26 26 26 26 26 25 25 24 23 22 22 22 22 22 22 21 20 20 19 19 19 19 18 18 18 18 18 18 18 17 17 17
23 24 25 25 25 24 24 25 25 26 27 27 26 25 24 25 24 23 22 21 20 20 20 19 20 21 20 20 19 19 19 19 19 18 18 18 18 17 17 17 17 17 17 17
24 25 25 24 24 24 24 26 26 26 25 25 26 23 23 24 23 22 20 19 18 18 17 17 18 18 19 19 19 19 19 19 18 18 18 18 17 17 17 16 16 16 16 16
24 25 24 24 24 25 25 26 26 26 25 25 26 24 22 23 22 20 18 17 16 16 16 16 16 17 17 18 18 18 18 18 18 18 18 17 17 16 16 16 16 16 16 15
24 25 25 25 25 26 26 26 26 26 25 24 25 24 21 21 20 18 17 15 14 14 14 15 15 16 16 16 17 17 17 17 17 17 17 17 16 16 16 15 15 15 14 14
22 24 25 25 24 25 25 24 23 23 23 24 26 24 19 18 18 17 15 14 13 13 13 14 14 14 15 15 16 16 16 16 16 16 16 16 15 15 15 14 14 13 13 13
20 21 24 24 24 24 24 24 23 22 23 25 26 22 18 17 16 15 14 13 12 12 12 12 13 13 13 14 14 15 15 15 15 15 15 14 14 14 14 13 13 12 12 11
19 20 23 24 25 25 24 24 25 24 23 23 22 19 17 17 16 15 13 12 11 11 11 11 12 12 12 13 13 13 14 14 14 14 13 13 13 13 12 12 11 11 11 10
20 19 22 24 25 25 26 25 25 24 22 21 20 20 18 16 15 14 13 12 11 10 10 11 11 11 11 11 11 12 12 12 12 12 12 12 11 11 11 11 10 10 9 9
21 18 21 23 24 24 24 25 25 24 23 21 19 18 19 17 16 14 12 11 10 10 10 10 10 10 10 10 10 10 11 11 11 11 10 10 10 9 9 9 9 8 8 8
20 18 19 21 24 25 25 24 24 23 23 23 20 17 16 16 15 13 12 10 10 10 10 9 9 9 9 9 9 9 9 9 9 9 9 9 8 8 8 8 7 7 7 7
20 18 18 20 22 23 24 25 25 24 23 23 20 16 14 14 13 12 11 10 9 9 9 9 9 9 8 8 8 8 8 8 8 8 8 8 7 7 7 7 6 6 6 6
20 18 16 17 18 19 21 23 24 24 23 22 19 16 14 13 12 11 10 9 9 9 9 8 8 8 8 8 8 8 7 7 7 7 7 7 6 6 6 6 6 5 5 5
21 18 18 18 19 20 20 21 22 22 22 21 18 16 14 13 12 11 10 9 9 8 8 8 8 7 7 7 7 7 7 7 7 6 6 6 6 5 5 5 5 5 5 5
21 19 19 19 20 20 20 21 22 21 20 18 17 15 14 12 11 10 9 9 8 8 8 7 7 7 7 7 7 7 6 6 6 6 6 6 5 5 5 5 5 5 4 4
22 20 19 20 21 21 19 20 20 19 19 18 17 14 13 12 11 10 9 9 8 8 7 7 7 7 7 7 7 6 6 6 6 6 6 5 5 5 5 5 4 4 4 4
21 20 20 20 20 18 18 20 20 18 17 17 15 14 13 11 10 9 9 8 8 7 7 7 7 7 7 7 6 6 6 6 6 6 6 5 5 5 5 5 5 5 5 4
22 21 21 20 19 18 19 20 20 18 16 15 14 13 11 10 9 9 8 8 8 7 7 7 7 7 7 6 6 6 6 6 6 6 6 6 5 5 5 5 5 5 5 5
22 21 21 20 19 17 18 19 19 18 15 14 13 12 11 12 11 9 8 8 7 7 7 7 7 7 6 6 6 6 6 6 6 6 6 6 5 5 5 5 5 5 5 5
21 21 21 20 19 17 18 19 19 16 14 14 13 12 12 12 11 8 8 7 7 7 7 7 7 6 6 6 6 6 6 6 6 6 6 5 5 5 5 5 5 5 5 5
21 21 21 20 18 16 18 19 17 15 14 14 13 12 11 10 8 8 7 7 7 7 7 7 6 6 6 6 6 6 6 6 6 6 6 6 6 6 5 5 5 5 5 5
21 20 20 18 17 16 16 16 15 15 14 13 12 11 10 9 8 7 7 7 7 7 7 7 6 6 6 6 6 6 6 6 6 6 6 6 6 5 5 5 5 5 5 5
21 21 20 18 17 16 16 15 15 14 13 12 11 10 9 8 8 7 7 7 7 7 7 7 6 6 6 6 6 6 6 6 6 6 6 6 6 5 5 5 5 5 5 5
21 21 19 18 17 16 15 15 14 13 13 12 11 10 9 8 8 7 7 7 7 7 7 7 7 6 6 6 6 6 6 6 6 6 6 6 6 6 5 5 5 5 5 4
22 21 20 18 17 17 15 14 14 13 12 11 11 10 9 9 8 8 7 7 7 7 7 7 7 7 7 6 6 6 6 6 6 6 6 6 6 6 6 5 5 5 4 4
Wind_Speed
11 12 13 14 16 18 17 17 16 13 11 14 14 12 7 3 3 6 8 7 5 5 7 8 8 10 13 13 13 11 11 11 9 8 8 7 5 4 4 3 5 5 4 3
12 14 15 15 12 13 15 16 13 6 8 9 9 7 2 4 5 5 6 7 8 9 11 10 9 9 10 10 10 10 9 10 9 7 6 5 5 4 5 4 6 7 5 4
14 11 9 11 11 11 13 14 12 7 7 9 8 8 7 6 8 10 11 12 12 13 13 11 10 9 8 6 6 7 7 8 8 7 6 5 5 4 4 5 5 7 9 8
12 12 10 9 11 12 13 14 13 11 10 10 13 9 11 10 10 11 13 14 14 13 13 12 12 12 10 7 5 5 5 6 6 7 7 7 6 5 5 5 6 8 10 10
12 10 10 12 12 13 13 11 11 12 12 11 14 9 10 13 11 11 13 15 15 15 15 14 14 14 14 11 7 7 7 5 5 5 6 7 6 6 7 8 9 8 8 11
14 13 11 12 12 11 12 11 10 12 12 15 16 11 8 7 10 12 13 14 14 14 13 14 15 16 15 14 10 9 9 8 8 7 7 8 10 10 11 10 9 8 8 9
13 14 12 10 11 11 12 10 8 10 12 14 15 8 6 9 13 14 14 14 14 14 14 15 16 16 15 15 14 12 13 12 11 11 11 11 12 12 12 11 10 10 9 9
11 11 10 11 13 11 14 15 13 8 9 12 14 7 10 16 17 16 15 15 15 15 14 15 14 14 14 15 16 16 17 16 15 14 14 13 14 11 11 12 12 11 10 10
5 7 8 11 13 13 14 16 16 11 13 11 2 8 11 17 18 17 16 15 15 14 14 14 14 15 15 16 16 16 17 18 18 17 18 17 16 16 15 14 14 12 11 11
3 6 8 8 10 13 14 14 10 10 9 7 4 9 12 19 19 17 16 15 14 14 14 14 14 14 15 15 15 16 18 18 17 17 16 16 17 16 15 15 16 14 12 12
3 4 6 5 9 10 11 12 10 9 5 5 4 3 5 19 18 18 17 16 15 14 14 13 13 13 14 15 15 16 16 17 17 17 17 17 16 16 15 14 14 12 11 10
3 2 5 6 8 8 9 10 10 9 6 6 2 1 7 18 18 18 17 16 15 14 13 13 13 14 14 15 15 15 15 16 16 16 16 15 15 14 14 13 12 10 10 9
5 2 4 4 4 5 5 7 7 8 7 7 2 5 13 18 18 17 17 16 14 14 14 13 13 13 13 13 14 14 14 15 15 14 15 14 13 13 13 12 10 10 9 9
1 2 1 3 6 4 6 7 7 7 7 5 4 12 15 18 18 16 15 15 14 14 14 13 13 12 12 12 12 13 13 13 13 13 14 13 12 12 11 10 9 8 8 7
1 2 2 4 5 2 2 4 7 8 8 4 9 11 13 16 17 16 15 15 15 14 14 13 12 12 11 12 12 12 12 11 12 12 13 12 11 10 9 8 7 6 6 6
1 2 3 4 5 3 3 6 7 9 11 12 14 9 12 15 15 15 16 16 15 14 13 13 12 12 11 11 11 10 10 10 10 11 11 10 9 9 8 7 6 5 5 5
3 2 4 3 2 3 4 8 8 9 9 7 6 8 15 15 14 14 14 15 15 14 13 13 12 11 10 9 9 9 9 9 9 9 10 9 8 8 7 7 6 5 5 5
5 5 4 2 0 1 5 6 9 11 12 13 15 15 14 14 13 12 12 14 14 14 13 11 10 10 9 8 8 8 8 8 8 8 8 8 8 8 6 6 5 4 3 3
3 4 4 2 1 6 5 4 5 6 9 12 16 16 17 18 16 11 10 13 14 13 12 10 10 9 8 8 7 7 7 7 7 8 7 7 7 7 6 5 4 3 3 2
2 2 4 4 1 3 5 6 5 6 6 11 15 16 17 15 8 7 10 13 13 12 11 10 9 8 7 7 6 6 7 7 7 7 7 7 6 6 5 4 3 2 1 2
2 2 2 3 2 6 5 3 1 0 5 11 12 13 12 6 8 14 14 13 12 11 11 10 9 8 7 6 6 6 7 7 7 7 7 6 4 4 4 3 1 1 2 1
5 5 3 3 3 5 6 4 5 7 11 12 12 13 14 16 19 17 16 14 13 12 11 10 9 8 7 6 6 6 6 6 6 6 5 4 2 2 4 2 1 1 2 1
5 7 6 7 7 8 10 11 11 12 14 14 15 17 19 19 18 17 15 13 12 12 10 9 9 8 7 6 5 7 5 5 5 5 4 2 2 3 2 1 1 1 2 3
5 4 7 8 9 10 12 13 13 14 15 15 17 18 19 19 18 16 14 12 11 10 10 9 9 9 7 6 6 5 5 4 4 4 3 2 2 1 1 2 4 5 6 6
6 4 7 10 12 12 11 12 14 15 16 17 17 17 18 18 17 15 13 12 10 9 9 9 8 8 8 7 7 6 5 3 2 1 1 1 1 2 2 4 5 6 6 5
4 4 4 7 11 10 13 13 15 15 16 17 18 17 16 16 16 14 13 11 10 10 9 8 8 8 8 7 7 6 5 4 2 1 1 1 1 1 2 5 5 8 6 6
Wind_Direction
229 237 242 237 234 250 272 284 264 238 188 193 204 214 228 210 193 175 178 175 139 100 111 113 119 137 135 139 149 160 168 163 165 170 175 179 179 156 125 99 88 97 103 109
241 240 252 258 250 250 262 271 269 232 171 191 189 188 164 84 93 102 112 108 92 86 68 69 88 108 117 131 148 163 170 167 171 171 171 170 160 143 125 99 78 78 78 71
249 259 262 260 256 248 254 260 260 245 206 198 185 183 151 117 93 81 76 73 67 71 66 56 60 72 92 109 143 163 163 162 168 165 158 152 142 136 125 108 85 64 64 58
262 254 255 252 249 246 247 249 254 252 229 205 204 195 165 150 116 87 71 68 63 57 58 52 53 51 59 71 91 107 124 140 153 160 163 165 166 156 126 106 89 73 65 63
270 260 247 242 240 240 249 243 242 243 241 239 220 208 180 164 139 101 79 71 66 57 50 44 44 46 42 44 67 78 86 97 117 141 154 156 139 124 112 103 94 81 68 60
275 275 262 247 241 239 251 251 234 240 240 240 238 222 175 169 140 113 89 79 72 67 58 47 45 44 41 39 50 66 74 73 83 93 101 117 123 119 114 107 99 84 71 62
266 254 250 247 238 228 236 240 223 220 226 235 228 214 118 104 112 112 101 86 74 67 60 52 47 44 43 42 47 58 67 65 71 79 79 85 94 98 99 98 91 84 76 67
287 267 233 226 234 222 221 235 236 231 230 232 213 160 126 113 111 109 103 92 82 72 64 60 57 53 51 49 50 57 63 62 64 71 75 77 81 84 83 84 86 82 78 72
292 285 238 214 228 233 219 232 248 270 285 280 141 114 127 128 124 118 107 95 86 78 71 67 62 60 58 57 57 61 67 67 65 69 73 74 76 81 83 81 79 79 78 77
273 283 262 218 215 234 245 235 239 244 264 268 208 183 170 155 139 125 114 102 92 84 77 71 67 66 66 66 67 67 70 73 73 72 75 79 78 80 83 83 83 82 79 78
282 288 275 236 220 221 235 244 248 256 233 250 226 252 179 154 138 126 116 108 102 94 87 82 77 74 73 72 71 72 74 76 75 76 78 80 81 81 82 82 83 83 82 80
337 304 281 268 262 252 230 252 255 264 280 272 205 84 106 125 123 120 116 110 104 98 92 87 84 81 78 76 76 76 77 79 80 82 83 83 84 84 84 84 83 82 81 79
336 331 303 287 267 278 245 250 268 283 283 293 296 112 102 111 114 117 117 114 109 104 97 92 87 84 83 82 82 83 84 86 88 89 89 87 86 85 85 85 84 83 83 82
268 352 343 281 283 260 289 298 304 296 295 326 89 134 135 127 124 122 119 115 110 106 102 99 93 89 89 89 89 90 89 91 92 92 90 89 88 88 88 88 88 89 91 90
328 326 255 247 256 235 317 336 4 2 8 30 105 126 139 134 131 129 125 121 116 112 109 106 103 99 96 94 92 91 92 93 95 95 94 94 94 94 93 93 93 93 90 89
343 289 265 244 210 159 47 29 34 38 59 91 102 98 123 123 126 130 130 128 123 119 115 112 109 107 103 100 100 99 99 100 101 101 101 103 103 102 101 100 95 90 81 71
317 304 287 277 163 163 57 34 45 53 54 94 103 116 126 125 129 132 133 131 129 126 121 117 112 108 107 106 108 109 106 105 105 106 109 110 108 105 105 102 95 84 77 73
327 319 292 303 240 102 83 68 76 73 66 82 105 120 124 123 118 117 127 129 127 125 123 119 117 114 112 111 109 110 110 110 110 109 111 113 112 107 105 98 91 83 71 63
346 317 309 326 90 115 113 78 67 89 85 99 114 117 118 116 106 98 112 123 127 126 126 125 124 124 123 122 123 123 123 123 117 112 112 111 108 102 96 89 83 68 53 45
200 262 294 323 4 90 83 57 70 107 109 119 128 133 139 140 127 128 128 126 126 127 129 128 128 127 124 127 135 135 127 117 110 106 103 99 97 95 87 76 70 53 24 39
273 260 322 352 74 86 48 18 320 324 134 137 139 144 151 143 120 133 133 128 128 130 132 134 133 131 132 137 136 125 118 112 109 109 106 104 110 120 104 86 53 355 17 50
345 350 10 6 62 72 21 45 62 99 119 128 128 128 119 113 119 130 133 133 135 135 136 136 133 133 137 140 133 121 113 115 115 113 109 107 98 74 87 89 34 1 337 321
35 30 36 51 81 81 65 84 102 115 120 121 121 123 124 126 129 132 134 136 137 138 138 138 137 135 134 134 128 124 125 128 123 114 106 102 83 65 43 335 344 11 4 8
103 82 107 105 105 102 96 99 103 109 116 120 125 130 131 132 134 135 137 139 141 142 143 142 141 140 139 140 138 139 137 131 124 130 144 161 150 138 78 17 32 42 25 16
102 121 105 113 124 117 107 107 110 113 116 121 126 130 133 135 138 140 141 143 145 144 143 145 143 142 143 144 144 144 137 128 130 155 183 218 168 137 105 79 50 53 64 53
90 99 145 148 150 137 127 124 123 123 124 126 128 129 134 138 139 140 139 139 140 141 143 144 145 144 144 144 146 149 151 155 176 226 241 253 166 155 157 141 117 63 95 109
Height
1478 1479 1475 1470 1466 1465 1460 1458 1452 1443 1438 1446 1452 1455 1453 1451 1453 1455 1461 1465 1468 1472 1475 1477 1482 1487 1493 1499 1504 1510 1514 1518 1521 1525 1528 1532 1535 1538 1540 1542 1544 1546 1548 1549
1474 1474 1466 1460 1458 1460 1460 1459 1451 1442 1439 1446 1452 1456 1455 1455 1457 1459 1463 1467 1471 1473 1475 1479 1482 1486 1492 1497 1503 1508 1513 1516 1519 1522 1526 1530 1533 1535 1537 1539 1541 1543 1545 1546
1470 1467 1461 1460 1460 1462 1461 1459 1453 1450 1445 1446 1454 1461 1460 1460 1462 1465 1468 1471 1474 1476 1480 1484 1486 1487 1492 1497 1502 1506 1510 1513 1516 1520 1524 1527 1530 1532 1534 1537 1538 1540 1542 1543
1463 1460 1460 1461 1462 1461 1463 1453 1452 1451 1454 1455 1454 1471 1465 1464 1467 1471 1475 1477 1480 1482 1483 1486 1487 1488 1493 1497 1500 1504 1507 1510 1513 1517 1520 1523 1526 1528 1531 1534 1536 1537 1539 1540
1462 1457 1459 1461 1459 1457 1456 1449 1451 1451 1453 1455 1452 1464 1469 1464 1471 1478 1482 1484 1486 1487 1489 1490 1490 1491 1494 1497 1499 1502 1505 1508 1510 1513 1516 1520 1523 1526 1528 1530 1532 1534 1536 1537
1460 1456 1455 1454 1452 1452 1451 1450 1451 1451 1453 1466 1453 1458 1475 1471 1475 1482 1488 1491 1493 1494 1494 1494 1494 1494 1497 1498 1499 1501 1504 1507 1509 1512 1515 1517 1520 1522 1524 1527 1529 1531 1533 1534
1462 1455 1453 1452 1453 1452 1453 1460 1468 1470 1468 1462 1444 1456 1481 1476 1478 1486 1492 1495 1497 1498 1498 1498 1498 1499 1500 1501 1501 1502 1504 1506 1508 1511 1514 1516 1518 1521 1523 1525 1527 1529 1531 1533
1473 1465 1452 1450 1452 1453 1454 1457 1468 1473 1468 1453 1441 1462 1481 1478 1483 1491 1495 1498 1501 1502 1503 1503 1503 1504 1504 1504 1503 1504 1505 1508 1510 1512 1514 1516 1518 1520 1522 1524 1526 1528 1530 1532
1475 1468 1450 1447 1447 1447 1451 1451 1447 1457 1460 1462 1460 1475 1484 1482 1487 1492 1497 1500 1503 1505 1506 1507 1508 1508 1508 1508 1508 1509 1509 1510 1512 1514 1515 1517 1519 1521 1523 1525 1526 1529 1531 1533
1467 1472 1453 1445 1444 1444 1442 1443 1448 1456 1470 1474 1474 1473 1479 1484 1488 1492 1497 1501 1505 1507 1509 1511 1511 1512 1512 1513 1513 1513 1513 1513 1515 1517 1518 1519 1521 1523 1525 1527 1528 1530 1533 1534
1462 1472 1461 1449 1448 1447 1445 1443 1444 1445 1454 1473 1486 1485 1466 1478 1487 1494 1500 1503 1507 1509 1512 1514 1516 1517 1517 1518 1518 1517 1518 1518 1519 1520 1522 1523 1525 1526 1529 1530 1532 1534 1536 1538
1464 1471 1469 1457 1445 1439 1441 1442 1443 1453 1454 1452 1468 1487 1473 1479 1490 1498 1503 1507 1510 1512 1515 1518 1520 1521 1522 1522 1522 1523 1523 1523 1524 1526 1527 1528 1530 1531 1533 1535 1536 1538 1540 1541
1466 1473 1478 1468 1458 1447 1443 1440 1440 1441 1446 1452 1466 1492 1484 1487 1496 1503 1507 1511 1513 1516 1519 1521 1523 1525 1526 1527 1527 1528 1529 1529 1531 1532 1533 1534 1535 1537 1538 1540 1541 1543 1544 1545
1466 1472 1484 1487 1476 1466 1458 1450 1443 1444 1449 1456 1469 1486 1492 1495 1501 1507 1511 1515 1517 1520 1522 1524 1527 1529 1530 1531 1532 1533 1534 1535 1537 1537 1538 1539 1541 1542 1543 1545 1546 1547 1548 1549
1463 1472 1474 1470 1465 1462 1461 1456 1452 1453 1454 1462 1475 1484 1492 1497 1504 1509 1514 1518 1521 1523 1526 1528 1530 1532 1534 1536 1537 1538 1539 1541 1542 1543 1543 1545 1546 1547 1548 1549 1550 1551 1552 1553
1461 1470 1470 1469 1463 1461 1463 1459 1458 1461 1464 1472 1480 1491 1495 1500 1506 1512 1516 1519 1523 1526 1529 1531 1534 1536 1538 1540 1541 1543 1544 1546 1547 1547 1548 1549 1551 1551 1552 1553 1554 1555 1555 1556
1459 1465 1470 1467 1460 1462 1473 1468 1467 1471 1473 1477 1484 1495 1500 1505 1510 1514 1518 1521 1524 1528 1531 1534 1537 1539 1541 1543 1545 1547 1548 1550 1551 1552 1553 1554 1555 1556 1557 1558 1558 1558 1558 1558
1461 1463 1464 1464 1467 1482 1481 1471 1472 1477 1481 1483 1489 1497 1502 1508 1514 1517 1520 1523 1527 1530 1533 1536 1539 1541 1544 1546 1548 1550 1552 1553 1554 1555 1557 1558 1559 1559 1560 1560 1560 1560 1560 1560
1461 1463 1463 1465 1473 1480 1477 1473 1474 1480 1490 1492 1496 1503 1508 1512 1516 1522 1524 1526 1529 1532 1535 1538 1541 1544 1546 1548 1551 1553 1554 1556 1557 1559 1560 1561 1562 1562 1563 1563 1563 1562 1562 1562
1459 1460 1464 1464 1475 1485 1484 1476 1477 1483 1495 1498 1501 1505 1509 1512 1516 1525 1527 1529 1532 1535 1537 1540 1544 1547 1549 1551 1553 1555 1557 1559 1560 1561 1562 1563 1564 1564 1565 1565 1564 1564 1564 1563
1461 1461 1464 1467 1475 1483 1480 1478 1479 1490 1498 1500 1502 1506 1509 1511 1516 1524 1527 1531 1534 1537 1540 1543 1546 1548 1551 1553 1555 1557 1559 1561 1562 1563 1564 1565 1566 1566 1566 1566 1565 1565 1564 1563
1462 1463 1464 1467 1479 1492 1484 1481 1487 1495 1496 1500 1504 1508 1511 1514 1519 1525 1529 1533 1537 1540 1542 1545 1548 1550 1553 1555 1557 1559 1561 1562 1564 1565 1566 1567 1567 1567 1567 1567 1566 1565 1564 1564
1465 1471 1471 1478 1489 1491 1489 1490 1494 1496 1499 1503 1507 1511 1514 1518 1523 1528 1532 1535 1539 1542 1545 1548 1550 1552 1555 1557 1558 1560 1562 1564 1565 1566 1567 1568 1568 1568 1568 1567 1567 1566 1565 1564
1468 1470 1474 1482 1489 1492 1493 1495 1498 1500 1503 1507 1510 1514 1517 1521 1526 1530 1534 1538 1541 1544 1547 1549 1552 1554 1556 1558 1560 1562 1563 1565 1566 1567 1567 1568 1568 1568 1568 1567 1567 1566 1565 1564
1468 1470 1475 1484 1490 1494 1497 1499 1502 1504 1507 1511 1514 1518 1521 1524 1529 1533 1537 1540 1543 1546 1549 1551 1554 1556 1558 1560 1561 1563 1564 1565 1566 1567 1567 1568 1568 1568 1568 1567 1567 1566 1564 1563
1467 1471 1475 1481 1487 1491 1498 1502 1505 1508 1511 1514 1517 1521 1525 1528 1532 1536 1539 1542 1545 1548 1551 1553 1555 1557 1559 1561 1562 1564 1565 1566 1567 1567 1567 1568 1568 1568 1567 1567 1566 1566 1565 1563